Regional Weather Roundup
Issued by NWS Mt. Holly, NJ

Home | Current Version | Previous Version | Text Only | Print | Product List | Glossary On
Versions: 1 2 3 4 5 6 7 8 9 10 11 12 13 14 15 16 17 18 19 20 21 22 23 24 25 26 27 28 29 30 31 32 33 34 35 36 37 38 39 40 41 42 43 44 45 46 47 48 49 50
000
ASUS41 KPHI 290411
RWRPHI

REGIONAL WEATHER ROUNDUP
NATIONAL WEATHER SERVICE MOUNT HOLLY NJ
1200 AM EDT FRI MAY 29 2015

NOTE:  "FAIR" INDICATES FEW OR NO CLOUDS BELOW 12,000 FEET WITH NO
SIGNIFICANT WEATHER AND/OR OBSTRUCTIONS TO VISIBILITY.

 * = STATION DOES NOT REPORT PRECIPITATION (E.G. RAIN, SNOW, ETC.)
        OR FOG.

NJZ015>026-290500-
SOUTHERN NEW JERSEY

CITY           SKY/WX    TMP DP  RH WIND       PRES   REMARKS
POMONA         CLOUDY    69  64  84 S3        30.21S
RIO GRANDE*    MOCLDY    70  63  78 S5        30.23S
MILLVILLE      MOCLDY    68  66  93 CALM      30.21S
WRIGHTSTOWN    PTCLDY    69  57  67 N6        30.20S
MOUNT HOLLY    PTCLDY    72  58  61 NE7       30.22R
TRENTON        PTCLDY    72  53  51 N5        30.23R

$$
NJZ001>014-290500-
NORTHERN NEW JERSEY

CITY           SKY/WX    TMP DP  RH WIND       PRES   REMARKS
SUSSEX         CLEAR     60  53  77 CALM      30.28S
ANDOVER*         N/A     61  56  83 CALM      30.27R
MORRISTOWN     PTCLDY    70  54  56 NE3       30.25R
NEWARK         MOCLDY    74  54  49 N14       30.23R
TETERBORO      PTCLDY    72  53  51 N6        30.23R
CALDWELL       PTCLDY    70  53  54 NE5       30.25R
SOMERVILLE     PTCLDY    65  54  67 CALM      30.22R
ALLAIRE*       MOCLDY    70  59  68 N3        30.23R
TOMS RIVER*    MOCLDY   N/A N/A N/A CALM      30.23R

$$
PAZ043-044-047-054-055-060>062-066>071-290500-
EASTERN PENNSYLVANIA

CITY           SKY/WX    TMP DP  RH WIND       PRES   REMARKS
PHILADELPHIA   PTCLDY    76  53  44 NE9       30.23R
NORTH PHILA    PTCLDY    73  51  46 NE7       30.24S
BLUE BELL      PTCLDY    66  57  72 CALM      30.23S
DOYLESTOWN     PTCLDY    68  50  52 CALM      30.24R
QUAKERTOWN*    CLEAR     68  52  56 N3        30.26S
POTTSTOWN      PTCLDY    70  53  54 CALM      30.25R
LANCASTER      CLEAR     69  55  60 E5        30.23S
COATESVILLE    PTCLDY    72  55  56 N5        30.25S
READING        CLEAR     71  51  49 CALM      30.24R
ALLENTOWN      CLEAR     68  52  56 N7        30.26R
MOUNT POCONO   CLEAR     55  32  41 N5        30.30S
HAZLETON       CLEAR     59  52  77 CALM      30.33S
WILKES BARRE   CLEAR     63  53  70 E6        30.29R

$$
DEZALL-MDZ008-012-015-019-020-290500-
DELAWARE AND EASTERN MARYLAND

CITY           SKY/WX    TMP DP  RH WIND       PRES   REMARKS
WILMINGTON     PTCLDY    71  61  70 NE7       30.22R
DOVER          MOCLDY    74  74  98 SW6       30.18S
GEORGETOWN     MOCLDY    70  65  84 CALM      30.23R
EASTON         MOCLDY    74  74 100 S5        30.25S
PATUXENT       CLOUDY    71  67  87 CALM      30.21R
OCEAN CITY     CLEAR     68  63  84 SW10      30.23S
WALLOPS ISLAND PTCLDY    67  64  90 S8        30.24S
CAMBRIDGE      CLOUDY    72  68  88 SE3       30.21S
SALISBURY      PTCLDY    67  62  84 CALM      30.22S

$$
PAZ001-021-NYZ056-072-MDZ011-DCZ001-290500-
OTHER NEARBY LOCATIONS

CITY           SKY/WX    TMP DP  RH WIND       PRES   REMARKS
HARRISBURG     PTCLDY    73  54  51 CALM      30.23R
STATE COLLEGE  CLEAR     65  54  67 N3        30.29R
WILLIAMSPORT   CLEAR     61  56  83 W3        30.26S
BINGHAMTON     CLEAR     61  51  70 CALM      30.31S
NEW YORK CITY  PTCLDY    74  55  51 NE10G16   30.27R
BALTIMORE      PTCLDY    75  66  73 SE8       30.20S
WASHINGTON DC  PTCLDY    78  69  73 CALM      30.21R

$$


USA.gov is the U.S. government's official web portal to all federal, state and local government web resources and services.